Weather History for Bowling Green, KY

Change the Weather History Date:

Sunday, October 7, 2012

  Actual Average Record
Temperature  
Mean Temperature 53 °F 62 °F  
Max Temperature 59 °F 74 °F 93 °F (1941)
Min Temperature 47 °F 49 °F 28 °F (1889)
Degree Days  
Heating Degree Days 12 5  
Month to date heating degree days 32 31  
Since 1 July heating degree days 65 67  
Cooling Degree Days 0 2  
Month to date cooling degree days 1 15  
Year to date cooling degree days 1924 1470  
Growing Degree Days 2 (Base 50)    
Moisture  
Dew Point 36 °F    
Average Humidity 56    
Maximum Humidity 71    
Minimum Humidity 40    
Precipitation  
Precipitation T in 0.11 in 1.39 in (2008)
Month to date precipitation 1.59 0.79  
Year to date precipitation 33.07 38.28  
Snow  
Snow 0.00 in 0.00 in 0.00 in ()
Month to date snowfall 0.0 0.0  
Since 1 July snowfall 0.0 0.0  
Since 1 September snowfall 0.0 0.0  
Snow Depth 0.00 in    
Sea Level Pressure  
Sea Level Pressure 30.18 in    
Wind  
Wind Speed 4 mph (NNW)    
Max Wind Speed 12 mph    
Max Gust Speed 17 mph    
Visibility 10 miles    
Events Rain    
T = Trace of Precipitation, MM = Missing Value Source: NWS Daily Summary

Daily Weather History Graph

Daily Weather History Graph

Search for Another Location

Airport:

Trip Planner

Search our weather history database for the weather conditions in past years. The results will help you decide how hot, cold, wet, or windy it might be!

Date:

Astronomy

Oct. 07, 2012 Rise Set
Actual Time 6:46 AM CDT 6:19 PM CDT
Civil Twilight 6:20 AM CDT 6:45 PM CDT
Nautical Twilight 5:50 AM CDT 7:15 PM CDT
Astronomical Twilight 5:20 AM CDT 7:45 PM CDT
Moon 11:36 PM CDT (10/7) 1:17 PM CDT (10/7)
Length of Visible Light 12h 24m
Length of Day
11h 32m
Waning Gibbous, 56% of the Moon is Illuminated
Oct 7
Waning Gibbous
Oct 8
Last Quarter
Oct 15
New
Oct 21
First Quarter
Oct 29
Full

Hourly Weather History & Observations

Time (CDT) Temp. Dew Point Humidity Pressure Visibility Wind Dir Wind Speed Gust Speed Precip Events Conditions
12:53 AM 50.0 °F 37.0 °F 61% 30.15 in 10.0 mi NNW 5.8 mph - N/A   Overcast
1:53 AM 50.0 °F 37.0 °F 61% 30.15 in 10.0 mi NNW 4.6 mph - N/A   Overcast
2:53 AM 48.9 °F 37.9 °F 66% 30.16 in 10.0 mi NW 4.6 mph - N/A   Overcast
3:53 AM 48.0 °F 39.0 °F 71% 30.14 in 10.0 mi NW 4.6 mph - 0.00 in Rain Light Rain
4:53 AM 48.0 °F 37.9 °F 68% 30.16 in 10.0 mi NW 4.6 mph - 0.00 in   Overcast
5:53 AM 48.0 °F 37.0 °F 66% 30.17 in 10.0 mi NNW 5.8 mph - N/A   Overcast
6:53 AM 46.9 °F 37.9 °F 71% 30.17 in 10.0 mi NW 4.6 mph - N/A   Overcast
7:53 AM 46.9 °F 37.9 °F 71% 30.20 in 10.0 mi NW 8.1 mph - N/A   Overcast
8:53 AM 48.0 °F 37.9 °F 68% 30.22 in 10.0 mi Variable 3.5 mph - N/A   Overcast
9:53 AM 48.9 °F 37.9 °F 66% 30.22 in 10.0 mi North 4.6 mph - N/A   Overcast
10:53 AM 53.1 °F 37.9 °F 57% 30.22 in 10.0 mi Calm Calm - N/A   Clear
12:53 PM 57.0 °F 36.0 °F 45% 30.20 in 10.0 mi NNW 5.8 mph - N/A   Clear
1:53 PM 57.0 °F 34.0 °F 42% 30.18 in 10.0 mi WNW 6.9 mph - N/A   Clear
2:53 PM 57.0 °F 35.1 °F 44% 30.18 in 10.0 mi Variable 3.5 mph - N/A   Clear
3:53 PM 57.9 °F 34.0 °F 41% 30.17 in 10.0 mi WNW 8.1 mph - N/A   Clear
4:53 PM 57.0 °F 33.1 °F 40% 30.17 in 10.0 mi North 4.6 mph - N/A   Clear
5:53 PM 55.0 °F 34.0 °F 45% 30.17 in 10.0 mi NNW 4.6 mph - N/A   Clear
6:53 PM 52.0 °F 34.0 °F 50% 30.18 in 10.0 mi NW 3.5 mph - N/A   Clear
7:53 PM 51.1 °F 35.1 °F 54% 30.19 in 10.0 mi Calm Calm - N/A   Clear
8:53 PM 50.0 °F 36.0 °F 59% 30.19 in 10.0 mi North 3.5 mph - N/A   Clear
9:53 PM 48.9 °F 35.1 °F 59% 30.19 in 10.0 mi North 3.5 mph - N/A   Clear
10:53 PM 46.9 °F 35.1 °F 63% 30.20 in 10.0 mi Calm Calm - N/A   Clear
11:53 PM 46.9 °F 36.0 °F 66% 30.21 in 10.0 mi Calm Calm - N/A   Clear